Volver al catálogo

OPS 9344

IDSCS 22

LostMilitarMEO
NORAD 3287·PAYLOAD·🇺🇸 United States

Lanzado Jun 13, 1968 desde Cape Canaveral Space Force Station

Loading…

Próximos Pases (próximas 24 horas)

TLE

ObsoletoSource: Space-Track

Época: Jul 24, 2026, 07:53 UTC

1  3287U 68050D   26205.32852354 -.00000119  00000-0  00000+0 0  9997
2  3287   7.2593  51.9041 0025961 147.8376 112.3951  1.07640896227663

Sigue OPS 9344 en tiempo real con AllMySat

Download on the App Store